Location: Ipswich
(52.0579°N, 1.1528°E)
Time: 09:30:37
(UTC+01:00)

ISS - Pass Details

Date: 13 May 2026
Orbit: 414 x 424 km, 51.6° (Epoch: 8 May)

Event Time Altitude Azimuth Distance (km) Brightness Sun altitude
Rises 22:18:19 0° 263° (W) 2,351 0.5 -11.9°
Reaches altitude 10° 22:20:24 10° 262° (W) 1,489 -0.6 -12.1°
Maximum altitude 22:23:45 83° 177° (S) 424 -3.9 -12.4°
Drops below altitude 10° 22:27:06 10° 88° (E) 1,493 -1.3 -12.7°
Enters shadow 22:27:29 - 87° (E) 1,646 -1.1 -12.7°
